Flag for Micronesia Weather past 2 weeks in Colonia, Yap, Micronesia

Now
87 °F

Partly sunny.


Feels Like: 99 °F
Forecast: 78 / 86 °F
Wind: 5 mph from North

Location: Yap Island

Current Time: Aug 20, 2014 at 5:09:23 PM

Latest Report: Aug 20, 2014 at 3:52 PM


Visibility: 12 mi

Pressure: 29.80 "Hg

Humidity: 72%

Dew point: 77 °F

Location of ColoniaLocation

Historic Weather in Colonia — Graph

°F

Colonia temperature yesterday

Maximum temperature yesterday: 88 °F (at 12:50 PM)
Minimum temperature yesterday: 78 °F (at 5:52 AM)
Average temperature yesterday: 82 °F

Past Weeks' High & Low Weather Summary

 TemperatureHumidityPressure
High88 °F (Aug 19, 12:50 PM)97% (Aug 8, 7:51 AM)29.94 "Hg (Aug 8, 7:51 AM)
Low75 °F (Aug 12, 10:50 PM)69% (Aug 6, 2:50 PM)29.72 "Hg (Aug 11, 4:50 PM)
Average81 °F84%29.84 "Hg
* Reported Aug 5 2:50 PM — Aug 20 2:50 PM, Colonia, Weather by CustomWeather, © 2014

Note: Actual official high and low records may vary slightly from our data, if they occured in-between our weather recording intervals... More about our weather records

Advertising

Colonia weather history for previous 24 hours

 ConditionsComfort  
Time TempWeatherWind HumidityBarometerVisibility
2:50 PM
Aug 20
86 °FPartly sunny.7 mph76%29.82 "Hg12 mi
1:50 PM88 °FPartly sunny.8 mph73%29.83 "Hg12 mi
12:51 PM82 °FPartly sunny.2 mph79%29.87 "Hg12 mi
11:50 AM88 °FScattered showers. Broken clouds.7 mph72%29.88 "Hg12 mi
10:51 AM86 °FBroken clouds.7 mph77%29.88 "Hg12 mi
9:50 AM86 °FBroken clouds.8 mph79%29.88 "Hg12 mi
8:51 AM84 °FBroken clouds.9 mph84%29.86 "Hg12 mi
7:50 AM80 °FPartly sunny.5 mph94%29.84 "Hg12 mi
6:58 AM77 °FOvercast.5 mph94%29.82 "Hg12 mi
5:54 AM77 °FOvercast.5 mph95%29.81 "Hg12 mi
4:52 AM77 °FOvercast.5 mph94%29.81 "Hg12 mi
3:58 AM78 °FOvercast.5 mph94%29.83 "Hg12 mi
2:52 AM76 °FOvercast.5 mph95%29.82 "Hg12 mi
1:51 AM76 °FSprinkles. Overcast.6 mph94%29.85 "Hg9 mi
12:50 AM78 °FOvercast.10 mph93%29.87 "Hg12 mi
11:52 PM
Aug 19
79 °FOvercast.6 mph90%29.87 "Hg12 mi
10:50 PM79 °FPartly cloudy.3 mph93%29.88 "Hg12 mi
9:50 PM81 °FPartly cloudy.3 mph89%29.88 "Hg12 mi
8:50 PM80 °FPartly cloudy.5 mph90%29.86 "Hg12 mi
7:50 PM82 °FScattered clouds.5 mph84%29.84 "Hg12 mi
6:51 PM84 °FScattered clouds.5 mph78%29.81 "Hg12 mi
5:57 PM87 °FScattered clouds.6 mph71%29.80 "Hg12 mi
Weather by CustomWeather, © 2014

See weather overviewHow to use our weather pages